Weather History for Wangaratta, VC

Change the Weather History Date:

Thursday, February 7, 2013

  Actual Average Record
Temperature  
Mean Temperature 78 °F -  
Max Temperature 102 °F - - ()
Min Temperature 55 °F - - ()
Cooling Degree Days 14    
Growing Degree Days 28 (Base 50)    
Moisture  
Dew Point 34 °F    
Average Humidity 21    
Maximum Humidity 55    
Minimum Humidity 4    
Precipitation  
Precipitation 0.00 in - - ()
Sea Level Pressure  
Sea Level Pressure 29.82 in    
Wind  
Wind Speed 7 mph ()    
Max Wind Speed 23 mph    
Max Gust Speed 31 mph    
T = Trace of Precipitation, MM = Missing Value Source: Averaged Metar Reports

Daily Weather History Graph

Daily Weather History Graph

Search for Another Location

Airport:

Trip Planner

Search our weather history database for the weather conditions in past years. The results will help you decide how hot, cold, wet, or windy it might be!

Date:

Astronomy

Feb. 07, 2013 Rise Set
Actual Time 6:37 AM EST 8:19 PM EST
Civil Twilight 6:09 AM EST 8:47 PM EST
Nautical Twilight 5:36 AM EST 9:20 PM EST
Astronomical Twilight 5:01 AM EST 9:55 PM EST
Moon 2:59 AM EST (2/7) 5:37 PM EST (2/7)
Length of Visible Light 14h 37m
Length of Day
13h 41m
Waning Crescent, 14% of the Moon is Illuminated
Feb 7
Waning Crescent
Feb 10
New
Feb 18
First Quarter
Feb 26
Full
Mar 5
Last Quarter

Hourly Weather History & Observations

Time (EST) Temp. Dew Point Humidity Pressure Visibility Wind Dir Wind Speed Gust Speed Precip Events Conditions
12:00 AM 65 °F 41 °F 29% 29.84 in - Calm Calm - -  
12:00 AM 64.4 °F 41.0 °F 42% 29.83 in - Calm Calm - N/A   Unknown
1:00 AM 62.6 °F 37.4 °F 39% 29.83 in - Calm Calm - N/A   Unknown
2:00 AM 60.8 °F 37.4 °F 42% 29.83 in - South 2.3 mph - N/A   Unknown
3:00 AM 59 °F 39 °F 36% 29.83 in - Calm Calm - -  
3:00 AM 59.0 °F 39.2 °F 48% 29.83 in - Calm Calm - N/A   Unknown
4:00 AM 59.0 °F 39.2 °F 48% 29.83 in - WSW 4.6 mph - N/A   Unknown
5:00 AM 59.0 °F 41.0 °F 51% 29.86 in - South 4.6 mph - N/A   Unknown
6:00 AM 57 °F 39 °F 40% 29.86 in - Calm Calm - -  
6:00 AM 57.2 °F 39.2 °F 51% 29.86 in - Calm Calm - N/A   Unknown
7:00 AM 59.0 °F 42.8 °F 55% 29.89 in - SE 4.6 mph - N/A   Unknown
8:00 AM 69.8 °F 44.6 °F 40% 29.89 in - Calm Calm - N/A   Unknown
9:00 AM 82 °F 44 °F 16% 29.90 in - North 11.5 mph - -  
9:00 AM 82.4 °F 44.6 °F 26% 29.92 in - North 11.5 mph - N/A   Unknown
10:00 AM 86.0 °F 42.8 °F 22% 29.89 in - North 18.4 mph - N/A   Unknown
11:00 AM 89.6 °F 41.0 °F 18% 29.89 in - North 19.6 mph - N/A   Unknown
12:00 PM 94 °F 38 °F 7% 29.87 in - North 18.4 mph - -  
12:00 PM 95.0 °F 37.4 °F 13% 29.89 in - North 18.4 mph - N/A   Unknown
1:00 PM 96.8 °F 35.6 °F 12% 29.83 in - North 13.8 mph - N/A   Unknown
1:32 PM 96.8 °F 33.8 °F 11% 29.83 in - North 17.3 mph 29.9 mph N/A   Unknown
2:00 PM 98.6 °F 30.2 °F 9% 29.83 in - NW 19.6 mph - N/A   Unknown
3:00 PM 102 °F 30 °F 4% 29.78 in - NNW 16.1 mph - -  
3:01 PM 100.4 °F 28.4 °F 8% 29.80 in - NNW 17.3 mph 31.1 mph N/A   Unknown
4:00 PM 100.4 °F 28.4 °F 8% 29.77 in - NNW 15.0 mph 26.5 mph N/A   Unknown
5:00 PM 100.4 °F 24.8 °F 7% 29.74 in - NNW 15.0 mph - N/A   Unknown
5:15 PM 100.4 °F 24.8 °F 7% 29.74 in - WNW 17.3 mph 28.8 mph N/A   Unknown
5:35 PM 100.4 °F 24.8 °F 7% 29.74 in - WNW 23.0 mph - N/A   Unknown
5:59 PM 98.6 °F 21.2 °F 6% 29.74 in - NNW 16.1 mph - N/A   Unknown
6:00 PM 99 °F 24 °F 4% 29.73 in - NNW 15.0 mph - -  
6:00 PM 98.6 °F 24.8 °F 7% 29.74 in - NNW 15.0 mph - N/A   Unknown
7:00 PM 95.0 °F 24.8 °F 8% 29.77 in - WSW 15.0 mph - N/A   Unknown
8:00 PM 91.4 °F 28.4 °F 10% 29.80 in - North 4.6 mph - N/A   Unknown
9:00 PM 91 °F 27 °F 4% 29.80 in - WSW 9.2 mph - -  
9:00 PM 91.4 °F 26.6 °F 10% 29.80 in - WSW 9.2 mph - N/A   Unknown
10:00 PM 89.6 °F 26.6 °F 10% 29.83 in - WSW 15.0 mph - N/A   Unknown
11:00 PM 86.0 °F 30.2 °F 13% 29.83 in - West 6.9 mph - N/A   Unknown